Location: Munkebjergskolens Observatorium
(55.3864°N, 10.3987°E)
Time: 08:57:40
(UTC+02:00)

JY1SAT - Pass Details

Date: 08 April 2023
Orbit: 555 x 574 km, 97.6° (Epoch: 03 June)

Event Time Altitude Azimuth Distance (km) Brightness Sun altitude
Exits shadow 22:02:41 26° 147° (SSE) 1,127 ? -15.2°
Maximum altitude 22:04:50 66° 71° (ENE) 625 ? -15.4°
Drops below altitude 10° 22:08:53 10° 350° (N) 1,888 ? -15.8°
Sets 22:11:03 0° 348° (NNW) 2,795 ? -16.1°
